TimeCST,TemperatureF,Dew PointF,Humidity,Sea Level PressureIn,VisibilityMPH,Wind Direction,Wind SpeedMPH,Gust SpeedMPH,PrecipitationIn,Events,Conditions,WindDirDegrees,DateUTC
12:52 AM,37.0,16.0,42,29.73,10.0,SSE,15.0,-,N/A,,Partly Cloudy,150,2014-02-28 06:52:00
1:52 AM,37.0,17.1,44,29.70,10.0,SE,12.7,-,N/A,,Clear,140,2014-02-28 07:52:00
2:52 AM,39.0,19.0,45,29.69,10.0,SSE,12.7,18.4,N/A,,Mostly Cloudy,150,2014-02-28 08:52:00
3:52 AM,37.0,19.9,50,29.63,10.0,SSE,16.1,-,N/A,,Partly Cloudy,160,2014-02-28 09:52:00
4:52 AM,37.0,21.0,52,29.60,10.0,SSE,13.8,-,N/A,,Clear,150,2014-02-28 10:52:00
5:52 AM,37.0,21.9,54,29.61,10.0,SSE,11.5,-,N/A,,Clear,150,2014-02-28 11:52:00
6:52 AM,37.0,23.0,57,29.66,10.0,SE,9.2,-,N/A,,Mostly Cloudy,140,2014-02-28 12:52:00
7:52 AM,37.0,23.0,57,29.68,10.0,SE,9.2,-,N/A,,Overcast,140,2014-02-28 13:52:00
8:52 AM,37.9,24.1,57,29.70,10.0,SE,8.1,-,N/A,,Overcast,130,2014-02-28 14:52:00
9:52 AM,42.1,27.0,55,29.71,9.0,SE,12.7,-,N/A,,Clear,140,2014-02-28 15:52:00
10:20 AM,44.1,32.0,63,29.72,8.0,South,15.0,-,N/A,,Mostly Cloudy,170,2014-02-28 16:20:00
10:52 AM,43.0,32.0,65,29.74,8.0,South,15.0,-,N/A,,Overcast,170,2014-02-28 16:52:00
11:52 AM,44.1,33.1,65,29.75,7.0,South,12.7,-,N/A,,Overcast,180,2014-02-28 17:52:00
12:52 PM,46.0,35.1,66,29.75,7.0,SSE,11.5,-,N/A,,Overcast,160,2014-02-28 18:52:00
1:33 PM,48.0,36.0,63,29.75,6.0,South,10.4,-,N/A,,Haze,180,2014-02-28 19:33:00
1:52 PM,48.0,36.0,63,29.75,6.0,SSW,10.4,-,N/A,,Haze,200,2014-02-28 19:52:00
2:50 PM,50.0,35.6,58,29.76,6.0,North,3.5,-,N/A,,Haze,360,2014-02-28 20:50:00
2:52 PM,50.0,36.0,59,29.75,6.0,North,3.5,-,N/A,,Haze,10,2014-02-28 20:52:00
3:52 PM,51.1,36.0,56,29.76,7.0,Calm,Calm,-,N/A,,Partly Cloudy,0,2014-02-28 21:52:00
4:52 PM,50.0,37.0,61,29.79,6.0,SSE,8.1,-,N/A,,Haze,150,2014-02-28 22:52:00
5:52 PM,46.9,37.0,68,29.82,6.0,SE,9.2,-,N/A,,Haze,140,2014-02-28 23:52:00
6:52 PM,44.1,36.0,73,29.85,7.0,SSE,5.8,-,N/A,,Mostly Cloudy,150,2014-03-01 00:52:00
7:52 PM,39.9,34.0,79,29.89,6.0,Calm,Calm,-,N/A,,Haze,0,2014-03-01 01:52:00
8:52 PM,41.0,35.1,79,29.94,6.0,North,13.8,17.3,N/A,,Haze,10,2014-03-01 02:52:00
9:04 PM,41.0,26.1,55,29.94,10.0,NNE,15.0,-,N/A,,Overcast,20,2014-03-01 03:04:00
9:52 PM,39.9,21.9,49,29.96,10.0,NNE,13.8,23.0,N/A,,Overcast,30,2014-03-01 03:52:00
10:52 PM,35.1,21.0,57,30.00,10.0,NNE,19.6,-,N/A,,Overcast,20,2014-03-01 04:52:00
11:52 PM,30.0,21.9,72,30.01,10.0,NNE,21.9,28.8,N/A,,Overcast,30,2014-03-01 05:52:00